Location: Saint-Br�vin-les-Pins
(47.2500°N, 2.1670°W)
Time: 17:50:57
(UTC+02:00)

N. Korean satellite - Visible Passes

Search period start: 17 October 2019 00:00
Search period end: 27 October 2019 00:00
Orbit: 455 x 508 km, 97.2° (Epoch: 16 October)

Date Brightness Start Highest point End Pass type
(mag) Time Alt. Az. Time Alt. Az. Time Alt. Az.
17 Oct 10.1 20:18:14 10° SW 20:20:07 14° W 20:21:59 10° WNW visible
18 Oct 8.5 07:39:35 10° NNE 07:42:54 34° E 07:46:15 10° SSE visible
18 Oct 9.1 19:51:41 10° SSW 19:54:37 27° W 19:57:36 10° NW visible
19 Oct 9.8 07:14:53 10° NE 07:17:28 18° E 07:20:04 10° SE visible
21 Oct 7.4 07:56:53 10° NNE 08:00:27 58° E 08:04:04 10° S visible
21 Oct 9.9 20:09:54 10° SW 20:12:13 17° W 20:14:34 10° NW visible
22 Oct 9.0 07:31:52 10° NE 07:35:04 29° E 07:38:18 10° SSE visible
22 Oct 8.6 19:43:37 10° SSW 19:46:44 33° W 19:49:55 10° NNW visible
23 Oct 10.1 07:07:21 10° NE 07:09:36 15° E 07:11:51 10° SE visible
24 Oct 10.4 20:28:56 10° WSW 20:29:50 11° W 20:30:44 10° WNW visible
25 Oct 7.9 07:49:04 10° NNE 07:52:36 46° E 07:56:10 10° S visible
25 Oct 9.5 20:01:37 10° SW 20:04:17 21° W 20:07:00 10° NW visible
26 Oct 9.3 07:24:09 10° NE 07:27:11 24° E 07:30:14 10° SSE visible
26 Oct 8.1 19:35:33 10° S 19:38:50 41° W 19:42:10 10° NNW visible
